COSMOS 1066 DEB, 45656

Orbit data source: Space-Track

COSMOS 1066 DEB, 45656 is space debris in LEO originally from a launch on Sat, 23 Dec 1978 UTC launched from the Plesetsk Missile And Space Complex (PKMTR). Debris objects in space refer to the collection of defunct objects orbiting the Earth. Examples of debris include non-operational satellites, rocket bodies, and fragments generated from explosions, collisions, or faulty payload assembly.

Loading next visibility...
Identifier
45656, 1978-121D
Orbit
LEO
Country
Flag of CISCIS
Related business
Manufacturer
Unknown
Mission
Spacecraft
Bus & Motor
Unknown
Mass
Unknown
Launch date (UTC)
1978-12-23 (47 years ago)
Launch vehicle
Unknown
Launch site
Plesetsk Missile And Space Complex (PKMTR)
Object type
Payload
Rocket body
Debris
Shape & HBR
Unknown shape, 0.1 m
Radar Cross Section
Small (<0.1 m²)

Expand to show TLE details & history
Last TLE update: 4 days ago

TLE from 4 days ago
0 COSMOS 1066 DEB
1 45656U 78121D   26169.88357735  .00003204  00000-0  10725-2 0  9991
2 45656  81.2290 223.7752 0028051  22.7118 337.5302 14.36977528319272
Epoch: 2026-06-18T21:12Z
TLE epoch observation values (Epoch: 2026-06-18T21:12:21.083Z)
Latitude
0.00005°
Longitude
-1.43315°
Altitude
752.917 km
Speed
7.488 km/s
True Right ascension
14h 55m 06s
True Declination
0° 00' 00"
Sunlit
Object was in full shadow at epoch
Visualization orbit readout
Latitude
Unknown
Longitude
Unknown
Altitude
Unknown
Speed
Unknown
Apparent Right ascension
Unknown
Apparent Declination
Unknown
Sunlit
N/A
Visualization observer readout
Local Sidereal Time
21:23:47
Azimuth
Unknown
Elevation
Unknown
Doppler factor
Unknown
Orbital elements
Apogee altitude
785.68 km
Perigee altitude
745.602 km
Semi-major axis
7,143.778 km
Eccentricity
0.00281
Inclination
81.229°
RAAN
223.7752°
Arg. of periapsis
22.7118°
True anomaly
337.40695°
Mean anomaly
337.5302°
Eccentric anomaly
337.46861°
Mean motion
3.59461 °/min
Orbital period
100.15 mins
BSTAR
0.0010725
Loading maneuver chart data...
Computing Atmospheric mass density...
Loading historical data...
Loading historical data...
Loading historical data...
Loading historical data...
Loading historical data...
Loading historical data...
Loading historical data...
Other satellites on launch #121 in the year 1978 (1978-12-23 UTC)

Documentation

Showing up to 5 results
|